Home   Weather   Syktyvkar   Past weeks

Flag for Russia Past Weather in Syktyvkar, Russia — Yesterday and Last 2 Weeks

Now
36 °F

Clear.


Feels Like: 36 °F
Forecast: 45 / 51 °F
Wind: 1 mph from North

Location: Syktyvkar Airport

Current Time: Sep 30, 2016 at 4:37:43 AM

Latest Report: Sep 30, 2016 at 4:00 AM


Visibility: 10 mi

Pressure: 30.01 "Hg

Humidity: 100%

Dew Point: 36 °F

Location of SyktyvkarLocation

Past Weather in Syktyvkar — Graph

°F

Syktyvkar Temperature Yesterday

Maximum temperature yesterday: 52 °F (at 2:30 PM)
Minimum temperature yesterday: 41 °F (at 11:30 PM)
Average temperature yesterday: 46 °F

High & Low Weather Summary for the Past Weeks

 TemperatureHumidityPressure
High59 °F (Sep 23, 3:00 PM)100% (Sep 15, 3:00 AM)30.27 "Hg (Sep 15, 3:00 AM)
Low32 °F (Sep 26, 3:30 AM)66% (Sep 28, 11:00 AM)29.27 "Hg (Sep 18, 3:00 AM)
Average47 °F93%29.94 "Hg
* Reported Sep 15 3:00 AM — Sep 30 3:00 AM, Syktyvkar, Weather by CustomWeather, © 2016

Note: Actual official high and low records may vary slightly from our data, if they occured in-between our weather recording intervals... More about our weather records

Advertising

Syktyvkar Weather History for the Previous 24 Hours

Scroll right to see more
 ConditionsComfort  
Time TempWeatherWind HumidityBarometerVisibility
3:00 AM
Fri, Sep 30
36 °FClear.3 mph100%30.01 "Hg10 mi
2:30 AM37 °FClear.No wind93%30.01 "Hg10 mi
2:00 AM37 °FClear.3 mph100%30.04 "Hg10 mi
1:30 AM37 °FClear.No wind100%30.04 "Hg10 mi
1:00 AM39 °FClear.No wind93%30.04 "Hg10 mi
12:30 AM41 °FPassing clouds.1 mph87%30.04 "HgN/A
12:00 AM41 °FPassing clouds.3 mph87%30.04 "HgN/A
11:30 PM
Thu, Sep 29
41 °FPassing clouds.3 mph93%30.04 "HgN/A
11:00 PM43 °FPassing clouds.3 mph87%30.04 "HgN/A
10:30 PM43 °FPassing clouds.3 mph87%30.04 "HgN/A
10:00 PM43 °FPassing clouds.3 mph87%30.04 "HgN/A
9:30 PM45 °FPassing clouds.6 mph87%30.01 "HgN/A
9:00 PM45 °FClear.3 mph87%30.01 "Hg10 mi
8:30 PM43 °FClear.6 mph93%30.01 "Hg10 mi
8:00 PM45 °FClear.6 mph87%30.01 "Hg10 mi
7:30 PM46 °FClear.6 mph87%30.01 "Hg10 mi
7:00 PM46 °FClear.6 mph87%30.01 "Hg10 mi
6:30 PM45 °FPassing clouds.3 mph87%30.01 "HgN/A
6:00 PM46 °FPassing clouds.3 mph87%30.01 "HgN/A
5:30 PM46 °FPassing clouds.6 mph87%30.01 "HgN/A
5:00 PM48 °FScattered clouds.6 mph82%29.98 "HgN/A
4:30 PM48 °FScattered clouds.6 mph87%29.98 "HgN/A
4:00 PM50 °FScattered clouds.6 mph82%29.98 "HgN/A
3:30 PM52 °FScattered clouds.6 mph82%29.98 "HgN/A
3:00 PM52 °FScattered clouds.6 mph77%29.98 "HgN/A
2:30 PM52 °FScattered clouds.6 mph82%30.01 "HgN/A
2:00 PM50 °FScattered clouds.6 mph88%30.01 "HgN/A
1:30 PM50 °FPartly sunny.6 mph88%30.01 "HgN/A
1:00 PM50 °FPartly sunny.6 mph88%30.01 "HgN/A
12:30 PM50 °FBroken clouds.8 mph82%30.01 "HgN/A
12:00 PM48 °FBroken clouds.6 mph87%30.01 "HgN/A
11:30 AM46 °FSprinkles. Broken clouds.6 mph93%30.01 "HgN/A
11:00 AM46 °FPartly sunny.6 mph93%30.01 "HgN/A
10:30 AM46 °FPartly sunny.8 mph87%30.01 "HgN/A
10:00 AM46 °FPartly sunny.6 mph93%30.01 "HgN/A
9:30 AM46 °FBroken clouds.6 mph87%30.01 "HgN/A
9:00 AM45 °FBroken clouds.8 mph93%30.04 "HgN/A
8:30 AM45 °FBroken clouds.6 mph100%30.04 "HgN/A
8:00 AM45 °FBroken clouds.6 mph93%30.04 "HgN/A
7:30 AM45 °FBroken clouds.6 mph100%30.04 "HgN/A
7:00 AM45 °FBroken clouds.3 mph93%30.04 "HgN/A
6:30 AM45 °FBroken clouds.3 mph93%30.04 "HgN/A
6:00 AM45 °FBroken clouds.3 mph93%30.04 "HgN/A
5:30 AM43 °FSprinkles. Partly cloudy.3 mph100%30.04 "Hg4 mi
5:00 AM43 °FSprinkles. Passing clouds.3 mph100%30.04 "HgN/A
4:30 AM43 °FSprinkles. Passing clouds.6 mph100%30.04 "Hg4 mi
4:00 AM43 °FSprinkles. Passing clouds.6 mph100%30.04 "Hg6 mi
Weather by CustomWeather, © 2016

See weather overviewHow to use our weather pages